TimeHST,TemperatureF,Dew PointF,Humidity,Sea Level PressureIn,VisibilityMPH,Wind Direction,Wind SpeedMPH,Gust SpeedMPH,PrecipitationIn,Events,Conditions,WindDirDegrees,DateUTC
12:43 AM,69.8,64.4,83,30.11,10.0,NE,16.1,39.1,0.03,,Scattered Clouds,50,2013-01-05 10:43:00
12:54 AM,70.0,64.0,81,30.13,7.0,NE,21.9,35.7,0.03,Rain,Light Rain,50,2013-01-05 10:54:00
1:06 AM,69.8,64.4,83,30.12,6.0,NE,23.0,40.3,0.00,Rain,Light Rain,50,2013-01-05 11:06:00
1:54 AM,70.0,64.0,81,30.12,8.0,NE,25.3,36.8,0.01,Rain,Light Rain,50,2013-01-05 11:54:00
2:05 AM,69.8,64.4,83,30.11,8.0,ENE,19.6,31.1,0.00,Rain,Light Rain,60,2013-01-05 12:05:00
2:37 AM,69.8,64.4,83,30.10,10.0,NE,19.6,32.2,0.00,,Mostly Cloudy,50,2013-01-05 12:37:00
2:54 AM,70.0,64.0,81,30.10,9.0,NE,23.0,35.7,0.00,Rain,Light Rain,50,2013-01-05 12:54:00
3:04 AM,69.8,64.4,83,30.10,10.0,ENE,23.0,39.1,0.00,Rain,Light Rain,60,2013-01-05 13:04:00
3:30 AM,69.8,64.4,83,30.10,7.0,NE,25.3,40.3,0.01,,Mostly Cloudy,50,2013-01-05 13:30:00
3:54 AM,70.0,62.1,76,30.11,10.0,NE,26.5,39.1,0.03,Rain,Light Rain,50,2013-01-05 13:54:00
4:54 AM,70.0,63.0,78,30.12,10.0,NE,19.6,35.7,0.00,Rain,Light Rain,50,2013-01-05 14:54:00
5:05 AM,69.8,64.4,83,30.10,7.0,NE,19.6,32.2,0.00,Rain,Light Rain,50,2013-01-05 15:05:00
5:54 AM,70.0,64.0,81,30.12,10.0,NE,17.3,34.5,0.01,Rain,Light Rain,50,2013-01-05 15:54:00
6:06 AM,71.6,62.6,73,30.10,10.0,NNE,17.3,25.3,0.00,Rain,Light Rain,30,2013-01-05 16:06:00
6:54 AM,70.0,61.0,73,30.13,10.0,NE,13.8,19.6,0.00,,Mostly Cloudy,40,2013-01-05 16:54:00
7:54 AM,70.0,63.0,78,30.14,10.0,NE,10.4,20.7,N/A,,Mostly Cloudy,40,2013-01-05 17:54:00
8:54 AM,72.0,64.9,78,30.16,10.0,NNE,11.5,20.7,0.00,,Mostly Cloudy,30,2013-01-05 18:54:00
9:54 AM,73.9,63.0,68,30.15,10.0,NNE,17.3,26.5,N/A,,Clear,30,2013-01-05 19:54:00
10:01 AM,73.4,62.6,69,30.15,10.0,NE,13.8,24.2,N/A,,Scattered Clouds,40,2013-01-05 20:01:00
10:54 AM,73.9,64.0,71,30.14,10.0,NE,16.1,29.9,0.00,,Scattered Clouds,40,2013-01-05 20:54:00
11:54 AM,75.0,64.9,71,30.11,10.0,NE,19.6,29.9,0.00,,Scattered Clouds,40,2013-01-05 21:54:00
12:54 PM,75.0,63.0,66,30.09,10.0,NE,17.3,27.6,0.00,,Mostly Cloudy,40,2013-01-05 22:54:00
1:54 PM,75.0,64.0,69,30.09,10.0,NE,21.9,34.5,N/A,,Clear,50,2013-01-05 23:54:00
2:54 PM,71.1,64.9,81,30.08,5.0,NE,16.1,39.1,0.00,Rain,Light Rain,50,2013-01-06 00:54:00
3:54 PM,73.9,64.0,71,30.09,9.0,ENE,18.4,33.4,0.00,Rain,Light Rain,60,2013-01-06 01:54:00
4:54 PM,73.9,64.0,71,30.09,10.0,NE,19.6,28.8,0.00,,Scattered Clouds,50,2013-01-06 02:54:00
5:54 PM,71.1,63.0,75,30.11,10.0,NE,17.3,29.9,0.00,,Scattered Clouds,50,2013-01-06 03:54:00
6:54 PM,72.0,62.1,71,30.12,10.0,NE,9.2,20.7,N/A,,Scattered Clouds,40,2013-01-06 04:54:00
7:54 PM,71.1,62.1,73,30.13,10.0,NE,12.7,25.3,N/A,,Clear,50,2013-01-06 05:54:00
8:54 PM,71.1,60.1,68,30.15,10.0,NNE,10.4,18.4,N/A,,Partly Cloudy,30,2013-01-06 06:54:00
9:54 PM,71.1,61.0,70,30.16,10.0,NE,17.3,25.3,N/A,,Clear,40,2013-01-06 07:54:00
10:54 PM,71.1,62.1,73,30.14,10.0,NE,9.2,-,0.00,,Mostly Cloudy,50,2013-01-06 08:54:00
11:54 PM,72.0,60.1,66,30.14,10.0,NNE,11.5,17.3,N/A,,Clear,30,2013-01-06 09:54:00